Middlesboro, KY

12:47 PM CST on November 15, 2019 (GMT -0600)
Middlesboro

Weather History for K1A6 - October, 2019

Change the Weather History Date:

Monday, October 21, 2019

  Actual Average (KLOZ) Record (KLOZ)
Temperature  
Mean Temperature 64 °F -  
Max Temperature 75 °F 67 °F 83 °F (1979)
Min Temperature 54 °F 42 °F 26 °F (1974)
Growing Degree Days 14 (Base 50)    
Moisture  
Dew Point 59 °F    
Average Humidity 84    
Maximum Humidity 100    
Minimum Humidity 55    
Precipitation  
Precipitation 0.10 in - - ()
Sea Level Pressure  
Sea Level Pressure 29.95 in    
Wind  
Wind Speed 2 mph (South)    
Max Wind Speed 10 mph    
Max Gust Speed 20 mph    
Visibility 10 miles    
Events Rain    
Averages and records for this station are not official NWS values.
T = Trace of Precipitation, MM = Missing Value Source: NWS Daily Summary

Daily Weather History Graph

Daily Weather History Graph

Search for Another Location

Airport or City:

Astronomy

Oct. 21, 2019 Rise Set
Actual Time 6:47 AM CDT 5:51 PM CDT
Civil Twilight 6:21 AM CDT 6:17 PM CDT
Nautical Twilight 5:51 AM CDT 6:47 PM CDT
Astronomical Twilight 5:21 AM CDT 7:17 PM CDT
Moon No Moon Rise 1:59 PM CDT (10/21)
Length of Visible Light 11h 55m
Length of Day
11h 03m
Waning Gibbous, 48% of the Moon is Illuminated
Oct 21
Waning Gibbous
Oct 27
New
Nov 4
First Quarter
Nov 12
Full
Nov 19
Last Quarter

Hourly Weather History & Observations

Time (CDT) Temp. Dew Point Humidity Pressure Visibility Wind Dir Wind Speed Gust Speed Precip Events Conditions
12:15 AM 55.4 °F 55.4 °F 100% 30.01 in 10.0 mi Calm Calm - N/A   Overcast
12:35 AM 55.0 °F 55.0 °F 100% 30.00 in 10.0 mi Calm Calm - N/A   Overcast
12:55 AM 54.9 °F 54.9 °F 100% 30.00 in 10.0 mi Calm Calm - N/A   Overcast
1:15 AM 55.4 °F 55.4 °F 100% 30.00 in 10.0 mi Calm Calm - N/A   Overcast
1:35 AM 55.2 °F 55.2 °F 100% 30.00 in 10.0 mi Calm Calm - N/A   Overcast
1:55 AM 55.4 °F 55.4 °F 100% 30.00 in 10.0 mi Calm Calm - N/A   Overcast
2:15 AM 55.6 °F 55.6 °F 100% 29.99 in 10.0 mi Calm Calm - N/A   Overcast
2:35 AM 55.8 °F 55.8 °F 100% 29.99 in 10.0 mi Calm Calm - N/A   Overcast
2:55 AM 56.3 °F 56.3 °F 100% 29.98 in 10.0 mi Calm Calm - N/A   Overcast
3:15 AM 56.7 °F 56.7 °F 100% 29.98 in 10.0 mi Calm Calm - N/A   Overcast
3:35 AM 57.6 °F 57.6 °F 100% 29.97 in 10.0 mi Calm Calm - N/A   Overcast
3:55 AM 57.9 °F 57.9 °F 100% 29.96 in 10.0 mi Calm Calm - N/A   Overcast
4:15 AM 59.0 °F 58.1 °F 97% 29.97 in 10.0 mi Calm Calm - N/A   Overcast
4:35 AM 59.2 °F 58.1 °F 96% 29.97 in 10.0 mi Calm Calm - N/A   Overcast
4:55 AM 59.0 °F 58.1 °F 97% 29.97 in 10.0 mi SSE 3.5 mph - N/A   Overcast
5:15 AM 59.2 °F 57.6 °F 94% 29.97 in 10.0 mi Calm Calm - N/A   Overcast
5:35 AM 59.0 °F 57.6 °F 95% 29.97 in 10.0 mi Calm Calm - N/A   Overcast
5:55 AM 59.0 °F 57.4 °F 94% 29.98 in 10.0 mi Calm Calm - N/A   Overcast
6:15 AM 59.2 °F 57.6 °F 94% 29.97 in 10.0 mi Calm Calm - N/A   Overcast
6:35 AM 59.0 °F 57.7 °F 96% 29.97 in 10.0 mi Calm Calm - N/A   Overcast
6:55 AM 59.0 °F 58.1 °F 97% 29.97 in 10.0 mi Calm Calm - N/A   Overcast
7:15 AM 59.2 °F 57.9 °F 96% 29.97 in 10.0 mi Calm Calm - N/A   Overcast
7:35 AM 59.5 °F 57.9 °F 94% 29.97 in 10.0 mi SSW 3.5 mph - N/A   Overcast
7:55 AM 59.5 °F 58.3 °F 96% 29.98 in 10.0 mi Calm Calm - N/A   Overcast
8:15 AM 60.3 °F 58.1 °F 93% 29.99 in 10.0 mi South 3.5 mph - N/A   Overcast
8:35 AM 60.8 °F 57.9 °F 90% 29.99 in 10.0 mi South 3.5 mph - N/A   Overcast
8:55 AM 60.8 °F 57.7 °F 90% 29.98 in 10.0 mi South 3.5 mph - N/A   Overcast
9:15 AM 61.7 °F 57.7 °F 87% 29.98 in 10.0 mi South 4.6 mph - N/A   Overcast
9:35 AM 62.4 °F 57.9 °F 85% 29.97 in 10.0 mi South 3.5 mph - N/A   Overcast
9:55 AM 63.7 °F 57.9 °F 81% 29.97 in 10.0 mi Calm Calm - N/A   Overcast
10:15 AM 66.7 °F 58.3 °F 74% 29.96 in 10.0 mi South 4.6 mph - N/A   Mostly Cloudy
10:35 AM 68.2 °F 58.8 °F 72% 29.95 in 10.0 mi SSE 9.2 mph - N/A   Scattered Clouds
10:55 AM 69.6 °F 58.5 °F 68% 29.94 in 10.0 mi SSW 5.8 mph - N/A   Clear
11:15 AM 70.2 °F 58.5 °F 66% 29.95 in 10.0 mi South 9.2 mph - N/A   Clear
11:35 AM 70.9 °F 58.6 °F 65% 29.94 in 10.0 mi SSW 3.5 mph - N/A   Scattered Clouds
11:55 AM 72.3 °F 58.3 °F 61% 29.93 in 10.0 mi SSW 4.6 mph - N/A   Clear
12:15 PM 73.6 °F 58.1 °F 58% 29.92 in 10.0 mi SSW 4.6 mph - N/A   Clear
12:35 PM 75.0 °F 58.6 °F 57% 29.92 in 10.0 mi SW 6.9 mph - N/A   Clear
12:55 PM 73.9 °F 56.8 °F 55% 29.91 in 10.0 mi SSW 8.1 mph 19.6 mph N/A   Clear
1:15 PM 75.0 °F 57.9 °F 55% 29.92 in 10.0 mi SSW 9.2 mph - N/A   Clear
1:35 PM 74.1 °F 58.8 °F 59% 29.92 in 10.0 mi SSW 4.6 mph - N/A   Clear
1:55 PM 73.0 °F 57.7 °F 59% 29.92 in 10.0 mi SSW 8.1 mph - N/A   Clear
2:15 PM 72.5 °F 57.6 °F 59% 29.92 in 10.0 mi South 10.4 mph - N/A   Clear
2:35 PM 71.8 °F 57.7 °F 61% 29.92 in 10.0 mi South 6.9 mph - N/A   Scattered Clouds
2:55 PM 72.3 °F 58.1 °F 61% 29.92 in 10.0 mi South 8.1 mph - N/A   Clear
3:15 PM 71.6 °F 58.1 °F 62% 29.92 in 10.0 mi South 9.2 mph - N/A   Clear
3:35 PM 71.1 °F 58.3 °F 64% 29.92 in 10.0 mi South 9.2 mph - N/A   Clear
3:55 PM 70.9 °F 58.5 °F 65% 29.92 in 10.0 mi South 8.1 mph - N/A   Clear
4:15 PM 70.5 °F 59.0 °F 67% 29.92 in 10.0 mi South 4.6 mph - N/A   Clear
4:35 PM 70.0 °F 59.0 °F 68% 29.91 in 10.0 mi South 5.8 mph - N/A   Clear
4:55 PM 69.8 °F 59.4 °F 69% 29.91 in 10.0 mi South 6.9 mph - N/A   Clear
5:15 PM 69.3 °F 59.4 °F 71% 29.91 in 10.0 mi South 6.9 mph - N/A   Scattered Clouds
5:35 PM 68.9 °F 59.5 °F 72% 29.90 in 10.0 mi South 6.9 mph - N/A   Clear
5:55 PM 68.5 °F 59.5 °F 73% 29.91 in 10.0 mi South 3.5 mph - N/A   Clear
6:15 PM 68.4 °F 59.4 °F 73% 29.90 in 10.0 mi South 4.6 mph - N/A   Scattered Clouds
6:35 PM 68.2 °F 59.2 °F 73% 29.91 in 10.0 mi South 4.6 mph - N/A   Mostly Cloudy
6:55 PM 68.2 °F 59.4 °F 73% 29.92 in 10.0 mi South 5.8 mph - N/A Rain Rain
7:15 PM 66.7 °F 60.8 °F 81% 29.93 in 10.0 mi SSW 3.5 mph - N/A   Drizzle
7:35 PM 65.7 °F 61.0 °F 85% 29.94 in 10.0 mi SW 3.5 mph - 0.01 in Rain Heavy Rain
7:55 PM 64.9 °F 60.4 °F 85% 29.94 in 10.0 mi SSW 4.6 mph - 0.02 in Rain Rain
8:15 PM 63.7 °F 62.6 °F 96% 29.93 in 10.0 mi SSE 3.5 mph - 0.01 in Rain Light Rain
8:35 PM 62.6 °F 62.6 °F 100% 29.93 in 10.0 mi Calm Calm - 0.01 in Rain Rain
8:55 PM 62.8 °F 62.8 °F 100% 29.92 in 4.0 mi Calm Calm - 0.05 in Rain Heavy Rain
9:15 PM 62.8 °F 62.8 °F 100% 29.92 in 10.0 mi Calm Calm - 0.01 in Rain Light Rain
9:35 PM 62.8 °F 62.8 °F 100% 29.91 in 10.0 mi South 5.8 mph - 0.02 in   Light Drizzle
9:55 PM 63.5 °F 62.8 °F 97% 29.93 in 10.0 mi SSW 5.8 mph - 0.02 in Rain Rain
10:15 PM 63.3 °F 63.0 °F 99% 29.92 in 10.0 mi South 4.6 mph - 0.01 in Rain Light Rain
10:35 PM 63.5 °F 62.6 °F 97% 29.91 in 10.0 mi South 5.8 mph - 0.01 in   Overcast
10:55 PM 63.5 °F 62.6 °F 97% 29.90 in 10.0 mi South 5.8 mph - 0.01 in   Overcast
11:15 PM 63.1 °F 63.0 °F 99% 29.89 in 10.0 mi Calm Calm - N/A   Drizzle
11:55 PM 62.1 °F 62.1 °F 100% 29.87 in 10.0 mi NE 3.5 mph - N/A Rain Light Rain